This demonstration page uses our WeatherBlox Daily Observations layout. Learn more.

Left ArrowRight Arrow

38.88101, -77.10428

Hourly Observations for June 6, 2021

Temp ( °F °C ) Dew Point ( °F °C ) Humidity (%) Winds ( mph kmh ) Pressure ( in mb ) Visibility ( mi km ) Precip ( " mm )
12:52 am 00:52 Mostly Cloudy 75 23.9 65 18.3 71 71 SSW 8 13 30.04 1017 10 16 N/A
1:52 am 01:52 Mostly Cloudy 74 23.3 66 18.9 76 76 S 7 11 30.04 1017 10 16 N/A
2:52 am 02:52 Mostly Cloudy 73 22.8 66 18.9 79 79 S 6 9 30.04 1017 10 16 N/A
3:52 am 03:52 Mostly Cloudy 72 22.2 66 18.9 82 82 S 7 11 30.03 1017 10 16 N/A
4:52 am 04:52 Partly Cloudy 72 22.2 65 18.3 79 79 S 6 9 30.04 1017 10 16 N/A
5:52 am 05:52 Mostly Sunny 72 22.2 65 18.3 79 79 SSW 5 7 30.06 1018 10 16 N/A
6:52 am 06:52 Mostly Sunny 73 22.8 65 18.3 76 76 S 5 7 30.08 1019 10 16 N/A
7:52 am 07:52 Mostly Sunny 75 23.9 67 19.4 76 76 S 8 13 30.09 1019 10 16 N/A
8:52 am 08:52 Sunny 78 25.6 67 19.4 69 69 S 8 13 30.10 1019 10 16 N/A
9:52 am 09:52 Sunny 81 27.2 67 19.4 62 62 S 6 9 30.10 1019 10 16 N/A
10:52 am 10:52 Mostly Sunny 84 28.9 68 20 59 59 S 7 11 30.09 1019 10 16 N/A
11:52 am 11:52 Mostly Sunny 86 30 70 21.1 59 59 S 10 17 30.09 1019 10 16 N/A
12:52 pm 12:52 Mostly Sunny 89 31.7 67 19.4 48 48 S 10 17 30.07 1018 10 16 N/A
1:52 pm 13:52 Partly Cloudy 91 32.8 66 18.9 44 44 S 12 19 30.06 1018 10 16 N/A
2:52 pm 14:52 Partly Cloudy 90 32.2 70 21.1 52 52 S 13 20 30.04 1017 10 16 N/A
3:52 pm 15:52 Partly Cloudy 91 32.8 68 20 47 47 S 13 20 30.03 1017 10 16 N/A
4:52 pm 16:52 Partly Cloudy 92 33.3 63 17.2 38 38 S 9 15 30.02 1017 10 16 N/A
5:52 pm 17:52 Partly Cloudy 91 32.8 66 18.9 44 44 S 9 15 30.01 1016 10 16 N/A
6:52 pm 18:52 Partly Cloudy 88 31.1 71 21.7 57 57 S 9 15 30.01 1016 10 16 N/A
7:52 pm 19:52 Mostly Cloudy 85 29.4 72 22.2 65 65 S 9 15 30.02 1017 10 16 N/A
8:52 pm 20:52 Mostly Cloudy 83 28.3 72 22.2 70 70 S 7 11 30.04 1017 10 16 N/A
9:52 pm 21:52 Partly Cloudy 82 27.8 73 22.8 74 74 S 6 9 30.06 1018 10 16 N/A
10:52 pm 22:52 Mostly Clear 80 26.7 72 22.2 76 76 S 5 7 30.07 1018 10 16 N/A
11:52 pm 23:52 Partly Cloudy 80 26.7 72 22.2 76 76 S 8 13 30.07 1018 10 16 N/A

Powered by AerisWeather